星链-37266(STARLINK-37266)

导读

STARLINK-37266(NORAD编号68780)是美国SpaceX公司星链(Starlink)低轨互联网星座中的一颗卫星。星链计划旨在构建覆盖全球的天基互联网系统,提供高速低时延的网络接入服务,总规划规模接近4.2万颗卫星。该卫星属于星链批量发射的组网卫星,运行于近地轨道,承担星座的通信组网任务,助力星链实现全球覆盖的目标,是SpaceX推进低轨星座建设过程中发射的卫星之一,目前纳入全球卫星跟踪观测体系。

基本信息
目录编号:
68780
目录名称:
STARLINK-37266
国际标识:
2026-086Q
轨道中心:
EARTH
卫星名称:
星链-37266
卫星全名:
星链-37266(STARLINK-37266)
卫星状态:
在轨 (已飞行147 天)
发射日期:
2026-04-19 UTC
国别 :
美国 (US)
星等 :
--
该卫星已列入 空间交会检测服务 Space Conjunction Data Service (SCDS) ,当前飞行风险评估等级: 无高风险
轨道信息
数据来源 国际轨道数据
星历时间: 2026-09-13T09:03:38+0800
9小时前
查看轨道信息
半长轴: 6843.693km
偏心率: 0.0002072
轨道倾角: 97.283°
近地点辐角 98.525°
升交点赤经 291.599°
平近点角 261.623°
近地点: 464.137km
远地点: 466.975km
周期: 93.906分钟
每日圈数: 15.33441
详细信息
固有亮度:
5
最大亮度:
2.5
卫星平台:
Starlink V1.0
覆盖范围:
全球
运营商:
太空探索技术公司
运营商所在国:
美国
制造商(研发单位):
太空探索技术公司
制造商所在国:
美国
使用方式:
暂无
卫星简介
Starlink 计划是 SpaceX 推出的全球卫星互联网项目,通过发射低轨道卫星,为全球尤其是偏远地区提供高速、低延迟的互联网服务。自 2019 年起,Starlink 已部署数千颗卫星,旨在缩小全球数字鸿沟,推动互联网普及。该项目还为军事、航空等行业提供通信支持,带来广泛经济效益。
2D轨道图
3D轨道图
轨道高度分析图
轨道倾角分析图
轨道综合分析图
查看轨道综合分析图
交会数据列表
事件ID 空间交会对象 最接近时刻(TCA) 交会距离 交会风险概率(CRP) 交会风险指数(CRI) 操作
CDM_260915-023604-735406-878021
2026-09-15T
02:36:37+0000
1.536 km
极远距离
4.698631E-6 低风险 0.48
CDM_260907-123104-775006-878025
2026-09-07T
12:31:43+0000
2.623 km
极远距离
1.568897E-6 低风险 0.39
CDM_260915-214405-816006-878021
2026-09-15T
21:44:32+0000
2.731 km
极远距离
1.414388E-6 低风险 0.38
与全量物体交会距离演化趋势
与全量物体交会风险概率演化趋势